Regional Weather Roundup
Issued by NWS

Home | Current Version | Previous Version | Text Only | Print | Product List | Glossary On
Versions: 1 2 3 4 5 6 7 8 9 10 11 12 13 14 15 16 17 18 19 20 21 22 23 24 25 26 27 28 29 30 31 32 33 34 35 36 37 38 39 40 41 42 43 44 45 46 47 48 49 50
000
ASUS43 KDTX 221010
RWRMI
MICHIGAN HOURLY REGIONAL WEATHER ROUNDUP
NATIONAL WEATHER SERVICE DETROIT/PONTIAC MI
600 AM EDT MON MAY 22 2017

NOTE: "FAIR" INDICATES FEW OR NO CLOUDS BELOW 12,000 FEET WITH NO
SIGNIFICANT WEATHER AND/OR OBSTRUCTION TO VISIBILITY.

MIZ047>049-052>055-059>063-066>070-074>076-081>083-221100-
SOUTHEAST LOWER MICHIGAN

CITY           SKY/WX    TMP DP  RH WIND       PRES   REMARKS
ADRIAN         MOCLDY    48  40  73 W3        30.01R
ALMA           CLOUDY    49  42  76 SW7       29.93F
ANN ARBOR      PTCLDY    48  39  71 SW8       29.98R
BAD AXE        CLOUDY    50  41  71 SW13      29.92S
CARO           CLOUDY    50  43  77 SW9       29.93R
DETROIT CITY   CLOUDY    53  43  68 W14G22    29.97R
DETROIT        CLOUDY    53  39  59 W21       29.99R
FLINT          CLOUDY    50  40  68 SW10      29.96S
GROSSE ILE     CLOUDY    53  43  68 W8        29.98R
HILLSDALE      CLOUDY    48  37  66 W8        29.99S
HOWELL         CLOUDY    50  37  62 SW9       29.96F

CITY           SKY/WX    TMP DP  RH WIND       PRES   REMARKS
JACKSON        CLOUDY    50  40  68 SW10      29.98S
LAMBERTVILLE   MOCLDY    50  42  72 W6        30.00S
LANSING        CLOUDY    50  40  68 SW10      29.96S
LAPEER         CLOUDY    51  40  67 W7        29.95S
MASON          CLOUDY    50  41  72 SW5       29.97R
MONROE         CLOUDY    52  41  65 W10G18    29.99R
MT. CLEMENS    CLOUDY    54  45  72 W14G20    29.95R
PONTIAC        CLOUDY    50  38  63 W15G21    29.95F
PORT HOPE        N/A     52  41  66 SW8G17    29.89S
PORT HURON     CLOUDY    54  45  71 W7        29.95R
TRI CITIES     CLOUDY    50  43  77 SW13      29.93S
MIDLAND        CLOUDY    50  40  68 SW7       29.91S
TROY           CLOUDY    53  40  61 SW6       29.98S
SAGINAW HB     CLOUDY    50  39  66 SW10      29.93S
$$
MIZ043>046-050>051-056>058-064>065-071>073-077>080-221100-
SOUTHWEST LOWER MICHIGAN

CITY           SKY/WX    TMP DP  RH WIND       PRES   REMARKS
BATTLE CREEK   CLOUDY    50  42  74 SW15      29.98S
BENTON HARBOR  PTCLDY    51  42  71 W15       30.00R
BIG RAPIDS     LGT RAIN  46  42  88 SW3       29.90R
COLDWATER      CLOUDY    50  42  76 SW9G16    30.00S
FREMONT        CLOUDY    48  41  78 SW10      29.92S
HOLLAND        CLOUDY    50  43  77 SW17G24   29.97S
GRAND RAPIDS   CLOUDY    50  43  77 SW20G25   29.95S
IONIA          CLOUDY    49  42  75 SW16      29.94S
KALAMAZOO      CLOUDY    51  40  65 SW10      30.00R
LUDINGTON      CLOUDY    46  43  88 SW12G21   29.88S
MARSHALL       CLOUDY    50  41  71 SW8       29.98S
MOUNT PLEASANT CLOUDY    49  41  76 SW7       29.91S
MUSKEGON       CLOUDY    50  43  77 SW15      29.94R
SOUTH HAVEN    CLOUDY    50  43  77 SW13G21   29.99R
$$
MIZ016>042-221100-
NORTHERN LOWER MICHIGAN

CITY           SKY/WX    TMP DP  RH WIND       PRES   REMARKS
ALPENA         CLOUDY    51  43  74 SW8       29.84S
BEAVER ISLAND  CLOUDY    46  43  91 SW13G18   29.79S
BELLAIRE       MIX PCPN  47  45  90 SW3       29.83S
CADILLAC       LGT RAIN  45  44  97 SW13      29.86R
CHARLEVOIX     LGT RAIN  47  46  95 S10       29.84S
FRANKFORT      CLOUDY    45  42  88 SW7       29.85S
GAYLORD        CLOUDY    47  42  83 SW9       29.82S
GRAYLING       CLOUDY    46  43  90 S5        29.85S
HARBOR SPRINGS CLOUDY    47  46  95 SW7       29.81S
HOUGHTON LAKE  CLOUDY    47  42  83 SW10      29.87S
MANISTEE       CLOUDY    47  43  86 SW7       29.86S
OSCODA         CLOUDY    52  40  64 SW10      29.87S
PELLSTON       CLOUDY    48  44  86 SW7       29.81F
ROGERS CITY    CLOUDY    49  43  81 SW5       29.83S
TRAVERSE CITY  CLOUDY    48  45  89 SW8       29.83R
$$
MIZ007>008-015-221100-
EASTERN UPPER MICHIGAN

CITY           SKY/WX    TMP DP  RH WIND       PRES   REMARKS
KINROSS        LGT RAIN  46  45  96 SW8       29.78F
MACKINAC ISLAN CLOUDY    47  47 100 SW10      29.79F FOG
NEWBERRY       CLOUDY    44  43  97 S8        29.75F
S. S. MARIE    CLOUDY    48  45  89 SW13      29.76F
MUNISING         N/A     49  48  97 SW7       29.73S
$$
MIZ004>006-011>014-085-221100-
CENTRAL UPPER MICHIGAN

CITY           SKY/WX    TMP DP  RH WIND       PRES   REMARKS
MANISTIQUE     CLOUDY    46  43  90 SW5       29.75S
ESCANABA       CLOUDY    48  46  93 SW8       29.76S
MENOMINEE      RAIN      47  45  93 W7        29.80S
SAWYER-GWINN   CLOUDY    46  45  96 SW5       29.73R
$$
MIZ001>003-009>011-084-221100-
WESTERN UPPER MICHIGAN

CITY           SKY/WX    TMP DP  RH WIND       PRES   REMARKS
IRON MOUNTAIN  CLOUDY    48  44  86 W8        29.74S
HOUGHTON       LGT RAIN  47  44  90 W20       29.70S FOG
COPPER HARBOR    N/A     47  45  93 CALM      29.69S
IRONWOOD       LGT RAIN  45  44  97 W10       29.76S
$$

ABBREVIATIONS USED IN REMARKS
   TC - TEMPERATURE IN CELSIUS
  WCI - WIND CHILL INDEX
   HX - HEAT INDEX
  VSB - VISIBILITY





USA.gov is the U.S. government's official web portal to all federal, state and local government web resources and services.